Location: Chandrammap?lem
(16.9200°N, 81.0051°E)
Time: 05:14:11
(UTC+00:00)

Thor Agena Rocket - Pass Details

Date: 29 May 2024
Orbit: 758 x 804 km, 99.1° (Epoch: 19 June)

Event Time Altitude Azimuth Distance (km) Brightness Sun altitude
Rises 22:16:52 0° 8° (N) 3,301 7.4 -23.0°
Reaches altitude 10° 22:19:12 10° 6° (N) 2,374 6.5 -22.5°
Maximum altitude 22:24:25 68° 284° (WNW) 862 3.5 -21.5°
Enters shadow 22:26:07 42° 217° (SW) 1,125 3.9 -21.1°
